Weather reports worldwide

Advertisment
Grünow, Germany (10289): temperature & dewpoint: 20.03.2019 08:00:00 - 26.03.2019 08:00:00 (CET)Grünow, Germany (10289): temperature 5cm & temperature -5cm: 20.03.2019 08:00:00 - 26.03.2019 08:00:00 (CET)Grünow, Germany (10289): temperature -20cm & temperature -100cm: 20.03.2019 08:00:00 - 26.03.2019 08:00:00 (CET)Grünow, Germany (10289): wind speed & gusts: 20.03.2019 08:00:00 - 26.03.2019 08:00:00 (CET)Grünow, Germany (10289): wind direction: 20.03.2019 08:00:00 - 26.03.2019 08:00:00 (CET)Grünow, Germany (10289): reduced air pressure: 20.03.2019 08:00:00 - 26.03.2019 08:00:00 (CET)Grünow, Germany (10289): visibility: 20.03.2019 08:00:00 - 26.03.2019 08:00:00 (CET)Grünow, Germany (10289): sunshine duration: 20.03.2019 08:00:00 - 26.03.2019 08:00:00 (CET)Grünow, Germany (10289): precipitation: 20.03.2019 08:00:00 - 26.03.2019 08:00:00 (CET)
Date & Time tt [°C] td [°C] tt 5cm [°C] tt -5cm [°C] tt -20cm [°C] tt -100cm [°C] ff [km/h] ff [kn] fx [km/h] fx [kn] dd ppp [hPa] vv [km] sd [min] rr [mm]
26.03.2019 08:00:00 4,0 0,9 4,9 2,6 4,3 6,6 31 17 41 22 W 1021,1 35 15 0,0
26.03.2019 07:00:00 2,5 0,4 1,8 1,8 4,4 6,6 27 14 48 26 WNW 1021,5 33 0 0,0
26.03.2019 06:00:00 1,8 1,0 1,0 1,7 4,6 6,6 20 11 25 14 W 1021,2 20 0 0,0
26.03.2019 05:00:00 1,0 0,5 -0,5 1,8 4,7 6,6 13 7 19 10 SW 1021,5 14 0 0,0
26.03.2019 04:00:00 1,1 0,5 -0,2 1,9 4,8 6,6 11 6 24 13 WSW 1021,8 14 0 0,0
26.03.2019 03:00:00 1,2 0,5 -0,8 2,0 5,0 6,6 12 7 18 10 W 1021,9 14 0 0,0
26.03.2019 02:00:00 1,0 0,4 -1,2 2,2 5,2 6,6 7 4 16 8 W 1022,1 11 0 0,0
26.03.2019 01:00:00 0,7 0,0 -1,1 2,4 5,4 6,6 11 6 16 9 W 1022,3 12 0 0,0
26.03.2019 00:00:00 1,1 0,3 -0,4 2,6 5,6 6,6 13 7 17 9 W 1021,9 17 0 0,0
25.03.2019 23:00:00 1,1 0,3 -1,1 2,9 5,8 6,6 9 5 11 6 W 1021,4 17 0 0,0
25.03.2019 22:00:00 1,2 0,6 -1,3 3,5 6,1 6,6 6 3 18 10 NW 1021,1 23 0 0,0
25.03.2019 21:00:00 2,6 1,2 1,6 4,2 6,3 6,6 14 8 24 13 NNW 1020,5 36 0 0,0
25.03.2019 20:00:00 3,4 0,8 1,8 5,0 6,4 6,6 19 10 29 16 N 1019,4 58 0 0,0
25.03.2019 19:00:00 4,8 1,7 3,3 6,1 6,5 6,6 22 12 41 22 N 1017,8 56 0 0,0
25.03.2019 18:00:00 5,8 1,6 5,4 6,9 6,6 6,6 19 11 39 21 NNW 1016,3 46 0 0,0
25.03.2019 17:00:00 6,9 0,7 6,9 8,0 6,5 6,6 20 11 31 17 NNW 1014,8 53 24 0,0
25.03.2019 16:00:00 6,0 2,2 6,6 8,5 6,3 6,6 11 6 40 22 NW 1014,0 46 22 0,5
25.03.2019 15:00:00 5,7 0,7 5,2 9,2 6,1 6,6 27 15 51 28 NW 1013,4 9 29 0,0
25.03.2019 14:00:00 6,1 0,8 6,7 8,9 5,9 6,6 30 16 43 23 NNW 1012,7 58 30 0,0
25.03.2019 13:00:00 7,1 1,7 11,2 7,9 5,6 6,6 25 13 44 24 NNW 1012,0 60 27 0,0
25.03.2019 12:00:00 6,5 1,1 8,9 6,8 5,4 6,6 31 17 41 22 WNW 1011,7 57 15 0,1
25.03.2019 11:00:00 6,1 1,3 7,7 5,8 5,3 6,6 29 16 43 23 WNW 1011,0 50 6 0,0
25.03.2019 10:00:00 4,9 1,6 5,1 5,1 5,3 6,6 25 14 39 21 WNW 1010,6 52 3 0,0
25.03.2019 09:00:00 3,2 2,0 3,7 3,8 5,3 6,6 20 11 28 15 WSW 1010,5 25 0 0,1
25.03.2019 08:00:00 1,7 1,1 1,8 3,4 5,4 6,6 19 10 27 15 SW 1010,3 10 0 0,3
25.03.2019 07:00:00 1,8 0,8 1,5 3,3 5,4 6,6 21 11 36 19 SW 1010,6 10 0 0,6
25.03.2019 06:00:00 2,6 0,4 2,1 3,0 5,6 6,6 18 10 26 14 SW 1011,1 27 0 0,0
25.03.2019 05:00:00 1,5 -0,4 0,2 2,9 5,7 6,6 11 6 21 11 SW 1012,1 29 0 0,0
25.03.2019 04:00:00 1,3 -0,7 0,2 3,2 5,9 6,6 14 8 18 10 SSW 1013,2 31 0 0,0
25.03.2019 03:00:00 1,7 -0,1 0,6 3,5 6,1 6,6 12 6 18 10 SSW 1014,4 32 0 0,0
25.03.2019 02:00:00 2,1 -0,3 1,2 3,5 6,3 6,6 14 8 19 10 SSW 1015,6 36 0 0,0
25.03.2019 01:00:00 2,3 -0,5 0,9 3,4 6,5 6,6 10 5 16 9 WSW 1016,6 36 0 0,0
25.03.2019 00:00:00 1,8 -0,5 0,0 3,7 6,8 6,6 12 6 14 8 WSW 1017,8 36 0 0,0
24.03.2019 23:00:00 1,9 -1,0 0,0 4,0 7,0 6,6 9 5 11 6 SW 1018,6 38 0 0,0
24.03.2019 22:00:00 2,5 -0,7 -0,5 4,6 7,3 6,6 7 4 11 6 SW 1019,3 37 0 0,0
24.03.2019 21:00:00 2,5 -0,5 0,0 5,4 7,6 6,6 7 4 13 7 WSW 1020,0 35 0 0,0
24.03.2019 20:00:00 4,1 -0,2 0,8 6,3 7,9 6,6 6 4 7 4 W 1020,4 33 0 0,0
24.03.2019 19:00:00 5,1 0,2 1,2 7,7 8,0 6,6 7 4 20 11 NNW 1020,9 35 17 0,0
24.03.2019 18:00:00 7,3 -0,3 7,1 9,5 8,0 6,6 16 9 22 12 NW 1021,5 38 40 0,0
24.03.2019 17:00:00 8,4 0,7 10,4 10,8 7,9 6,6 15 8 21 11 NW 1022,0 39 26 0,0
24.03.2019 16:00:00 8,5 1,8 10,2 11,0 7,8 6,5 11 6 21 11 NW 1022,7 40 5 0,0
24.03.2019 15:00:00 8,3 -0,1 10,4 11,1 7,6 6,5 9 5 13 7 NNW 1023,3 43 0 0,0
24.03.2019 14:00:00 7,9 0,0 10,9 11,2 7,4 6,5 9 5 17 9 N 1024,1 34 0 0,0
24.03.2019 13:00:00 7,9 0,3 10,3 11,8 7,0 6,5 9 5 16 9 N 1025,3 34 0 0,0
24.03.2019 12:00:00 7,8 0,2 13,7 11,5 6,6 6,5 6 3 18 10 NNW 1026,0 24 17 0,0
24.03.2019 11:00:00 7,4 0,5 15,2 10,0 6,3 6,5 5 3 16 8 NNW 1026,8 33 58 0,0
24.03.2019 10:00:00 7,2 0,5 11,0 8,2 6,1 6,5 4 2 13 7 NW 1027,3 36 60 0,0
24.03.2019 09:00:00 5,6 1,4 10,0 6,1 6,0 6,5 8 4 12 7 NW 1027,9 23 48 0,0
24.03.2019 08:00:00 4,2 2,3 4,4 4,8 6,1 6,5 3 2 8 4 WNW 1028,0 23 0 0,0
24.03.2019 07:00:00 3,3 1,9 2,6 4,4 6,2 6,5 5 3 12 6 WNW 1028,5 25 0 0,0
24.03.2019 06:00:00 3,3 1,7 2,1 4,5 6,3 6,5 9 5 11 6 NW 1028,6 27 0 0,0
24.03.2019 05:00:00 3,6 1,7 2,3 4,6 6,4 6,5 7 4 15 8 NW 1028,5 27 0 0,0
24.03.2019 04:00:00 3,8 1,9 2,6 4,7 6,6 6,5 9 5 13 7 NNW 1028,7 27 0 0,0
24.03.2019 03:00:00 3,7 2,0 2,4 4,9 6,7 6,4 8 4 15 8 NNW 1028,9 26 0 0,0
24.03.2019 02:00:00 4,3 2,2 3,0 5,0 6,9 6,4 9 5 14 8 NW 1028,9 24 0 0,0
24.03.2019 01:00:00 4,6 2,2 3,3 5,2 7,1 6,4 12 6 19 11 NW 1028,9 25 0 0,0
24.03.2019 00:00:00 5,3 2,6 3,9 5,3 7,3 6,4 13 7 19 11 WNW 1028,8 20 0 0,0
23.03.2019 23:00:00 5,4 2,7 3,6 5,6 7,5 6,4 12 6 17 9 WNW 1028,9 19 0 0,0
23.03.2019 22:00:00 4,9 2,7 1,6 6,0 7,8 6,4 12 6 16 9 NW 1028,9 12 0 0,0
23.03.2019 21:00:00 6,0 3,3 2,2 6,9 8,0 6,4 10 5 19 11 NW 1028,7 13 0 0,0
23.03.2019 20:00:00 7,3 4,5 5,0 7,8 8,2 6,4 14 8 25 13 NW 1028,5 12 0 0,0
23.03.2019 19:00:00 8,3 5,4 6,6 8,8 8,3 6,4 15 8 20 11 NW 1027,7 14 0 0,0
23.03.2019 18:00:00 9,5 6,3 8,2 10,1 8,3 6,4 15 8 25 13 NW 1027,3 18 1 0,0
23.03.2019 17:00:00 11,1 6,5 11,0 10,7 8,2 6,3 19 10 29 16 NW 1027,0 24 0 0,0
23.03.2019 16:00:00 11,3 6,6 11,3 11,6 8,0 6,3 18 10 28 15 NNW 1026,8 31 1 0,0
23.03.2019 15:00:00 11,8 6,7 14,0 12,5 7,8 6,3 18 10 37 20 NW 1026,7 16 31 0,0
23.03.2019 14:00:00 11,8 7,4 15,8 11,9 7,5 6,3 18 10 29 16 NW 1026,6 11 47 0,0
23.03.2019 13:00:00 10,2 6,6 13,3 10,0 7,3 6,3 19 11 30 16 NW 1026,5 7 12 0,0
23.03.2019 12:00:00 9,0 8,0 9,8 9,6 7,2 6,3 20 11 26 14 NW 1026,1 2,9 0 0,0
23.03.2019 11:00:00 9,1 8,1 10,4 9,4 7,0 6,3 12 6 19 10 WNW 1025,6 3,4 0 0,0
23.03.2019 10:00:00 7,6 7,3 8,9 8,8 6,9 6,3 10 5 15 8 W 1025,5 2,2 0 0,0
23.03.2019 09:00:00 7,1 7,1 8,2 7,9 6,9 6,3 10 5 16 9 SW 1025,2 0,4 0 0,0
23.03.2019 08:00:00 6,6 6,6 7,2 7,2 6,9 6,3 13 7 18 10 SW 1025,3 0,1 0 0,0
23.03.2019 07:00:00 6,6 6,6 6,8 7,0 6,9 6,2 11 6 21 12 S 1025,3 0,2 0 0,0
23.03.2019 06:00:00 6,6 6,6 6,7 6,9 6,9 6,2 12 7 19 11 SSE 1025,6 0,2 0 0,0
23.03.2019 05:00:00 6,8 6,7 6,8 6,9 7,0 6,2 14 7 18 10 SSE 1026,0 0,3 0 0,0
23.03.2019 04:00:00 7,0 7,0 6,9 6,7 7,0 6,2 10 5 16 9 SSE 1026,2 0,2 0 0,0
23.03.2019 03:00:00 6,9 6,9 6,8 6,4 7,1 6,2 12 6 21 12 S 1026,7 0,7 0 0,0
23.03.2019 02:00:00 6,1 5,9 5,5 6,0 7,3 6,2 13 7 20 11 SSE 1027,2 2,0 0 0,0
23.03.2019 01:00:00 5,8 5,2 4,7 6,4 7,5 6,2 15 8 21 11 SSE 1027,7 4,1 0 0,0
23.03.2019 00:00:00 6,1 5,5 4,7 7,0 7,7 6,1 11 6 18 10 S 1028,3 4,8 0 0,0
22.03.2019 23:00:00 7,5 6,4 6,1 7,8 7,8 6,1 11 6 17 9 S 1029,1 6 0 0,0
22.03.2019 22:00:00 8,8 7,2 8,4 8,4 7,8 6,1 9 5 22 12 S 1029,9 7 0 0,0
22.03.2019 21:00:00 9,4 7,3 8,9 8,7 7,9 6,1 14 8 23 13 S 1030,0 7 0 0,0
22.03.2019 20:00:00 9,6 7,5 9,3 9,0 7,9 6,1 15 8 22 12 S 1030,5 8 0 0,0
22.03.2019 19:00:00 9,6 7,6 9,4 9,3 8,0 6,1 11 6 17 9 SSE 1030,7 9 0 0,0
22.03.2019 18:00:00 10,0 7,6 9,9 9,7 8,0 6,1 11 6 18 10 SSE 1030,9 7 0 0,0
22.03.2019 17:00:00 10,4 7,5 10,5 10,0 7,9 6,1 10 6 16 9 SE 1031,3 8 0 0,0
22.03.2019 16:00:00 10,5 7,4 10,9 10,4 7,8 6,1 10 5 16 8 SE 1031,8 30 0 0,0
22.03.2019 15:00:00 10,6 7,6 11,3 10,6 7,7 6,0 7 4 15 8 SE 1032,2 28 0 0,0
22.03.2019 14:00:00 10,2 7,2 11,4 10,5 7,6 6,0 9 5 18 10 S 1032,8 26 0 0,0
22.03.2019 13:00:00 10,1 7,7 11,2 10,3 7,5 6,0 9 5 16 9 SSW 1033,2 21 0 0,0
22.03.2019 12:00:00 9,9 7,3 11,2 10,2 7,3 6,0 12 6 17 9 S 1033,7 28 0 0,0
22.03.2019 11:00:00 9,7 7,2 11,2 9,7 7,2 6,0 4 2 9 5 SE 1033,9 23 0 0,0
22.03.2019 10:00:00 9,5 7,9 10,3 9,1 7,1 6,0 5 3 9 5 SSW 1034,0 13 0 0,0
22.03.2019 09:00:00 9,0 8,3 9,5 8,5 7,1 6,0 6 3 9 5 SW 1033,9 7 0 0,0
22.03.2019 08:00:00 8,7 8,3 8,9 8,0 7,1 6,0 4 2 6 4 WSW 1033,9 4,7 0 0,0
22.03.2019 07:00:00 8,4 7,7 8,1 7,8 7,1 5,9 3 2 10 5 WNW 1033,4 4,3 0 0,0
22.03.2019 06:00:00 8,6 7,6 8,2 7,9 7,1 5,9 10 5 14 7 NNW 1033,3 4,6 0 0,0
22.03.2019 05:00:00 8,8 7,4 8,4 7,9 7,2 5,9 7 4 19 10 NW 1033,1 9 0 0,0
22.03.2019 04:00:00 8,9 7,3 8,6 8,0 7,2 5,9 14 8 20 11 NW 1032,7 11 0 0,0
22.03.2019 03:00:00 9,3 7,4 8,9 8,1 7,2 5,9 8 4 19 10 WNW 1032,2 13 0 0,0
22.03.2019 02:00:00 9,6 7,4 9,2 8,2 7,2 5,9 13 7 21 12 WNW 1031,9 14 0 0,0
22.03.2019 01:00:00 9,8 7,4 9,3 8,3 7,3 5,9 16 9 25 14 W 1032,1 13 0 0,0
22.03.2019 00:00:00 10,2 7,4 9,7 8,4 7,3 5,9 14 8 21 12 WNW 1032,5 12 0 0,0
21.03.2019 23:00:00 10,2 7,4 9,6 8,5 7,4 5,9 11 6 22 12 WNW 1032,8 12 0 0,0
21.03.2019 22:00:00 10,3 7,3 9,8 8,6 7,4 5,9 12 7 19 10 W 1032,6 13 0 0,0
21.03.2019 21:00:00 10,3 7,2 9,7 8,7 7,5 5,9 11 6 28 15 W 1032,4 13 0 0,0
21.03.2019 20:00:00 10,7 7,4 10,1 8,8 7,5 5,8 21 12 30 16 NW 1032,3 16 0 0,0
21.03.2019 19:00:00 11,5 8,1 10,0 9,5 7,5 5,8 16 9 26 14 WNW 1031,7 16 0 0,0
21.03.2019 18:00:00 11,7 7,9 10,2 10,6 7,4 5,8 13 7 24 13 WSW 1031,3 17 42 0,0
21.03.2019 17:00:00 12,6 8,5 13,0 11,3 7,3 5,8 14 7 24 13 SW 1031,2 16 36 0,0
21.03.2019 16:00:00 12,7 7,6 13,7 11,7 7,0 5,8 18 10 29 15 SW 1031,2 19 41 0,0
21.03.2019 15:00:00 12,5 7,7 13,5 10,4 6,9 5,8 16 9 27 15 W 1032,0 22 0 0,0
21.03.2019 14:00:00 12,2 7,5 13,0 10,3 6,7 5,8 18 10 29 16 W 1032,5 22 0 0,0
21.03.2019 13:00:00 11,9 7,2 13,1 10,0 6,5 5,8 22 12 31 17 W 1032,8 21 0 0,0
21.03.2019 12:00:00 11,3 7,2 12,2 9,1 6,3 5,8 20 11 32 17 W 1033,1 20 0 0,0
21.03.2019 11:00:00 10,6 6,5 11,3 8,7 6,2 5,8 21 11 29 16 W 1033,2 19 0 0,0
21.03.2019 10:00:00 10,0 7,2 10,6 8,3 6,1 5,8 18 10 25 14 WSW 1033,2 11 0 0,0
21.03.2019 09:00:00 9,5 7,0 9,9 7,8 6,0 5,8 18 10 24 13 WSW 1033,1 9 0 0,0
21.03.2019 08:00:00 8,5 7,1 8,8 7,0 5,9 5,8 11 6 18 10 SW 1032,8 5 0 0,0
21.03.2019 07:00:00 7,8 6,9 7,5 6,7 6,0 5,8 11 6 16 9 SSW 1032,5 4,0 0 0,0
21.03.2019 06:00:00 7,6 6,6 7,1 6,7 6,0 5,8 11 6 15 8 SSW 1032,2 4,7 0 0,0
21.03.2019 05:00:00 8,2 6,7 7,7 6,8 6,0 5,8 10 6 14 8 SW 1032,3 6 0 0,0
21.03.2019 04:00:00 8,5 6,7 8,0 6,9 6,0 5,8 10 6 18 10 WSW 1032,2 7 0 0,0
21.03.2019 03:00:00 8,6 6,8 8,1 6,9 6,0 5,8 12 7 17 9 WSW 1032,3 7 0 0,0
21.03.2019 02:00:00 8,7 6,8 8,2 7,0 6,0 5,8 13 7 18 10 WSW 1032,6 8 0 0,0
21.03.2019 01:00:00 8,8 6,7 8,3 7,0 5,9 5,8 12 6 25 14 W 1032,6 10 0 0,0
21.03.2019 00:00:00 9,1 6,6 8,6 7,1 5,9 5,8 15 8 22 12 W 1032,4 11 0 0,0
20.03.2019 23:00:00 9,2 6,6 8,7 7,1 5,9 5,8 15 8 26 14 W 1032,4 12 0 0,0
20.03.2019 22:00:00 9,2 6,8 8,8 7,2 5,9 5,8 16 9 29 16 W 1032,2 12 0 0,0
20.03.2019 21:00:00 9,7 5,8 9,1 7,2 5,9 5,8 18 10 32 18 W 1031,6 22 0 0,0
20.03.2019 20:00:00 9,9 5,2 9,3 7,4 5,9 5,8 20 11 32 17 WSW 1031,0 25 0 0,0
20.03.2019 19:00:00 10,2 5,0 9,6 7,6 5,9 5,8 24 13 39 21 W 1030,9 29 0 0,0
20.03.2019 18:00:00 10,8 4,0 10,0 7,9 5,8 5,8 18 10 28 15 WSW 1030,6 40 0 0,0
20.03.2019 17:00:00 11,1 3,5 10,6 8,4 5,6 5,8 22 12 36 19 WSW 1030,4 45 0 0,0
20.03.2019 16:00:00 11,4 3,8 11,9 8,7 5,4 5,8 19 10 36 19 WSW 1030,2 34 0 0,0
20.03.2019 15:00:00 11,0 3,6 11,1 9,1 5,1 5,8 20 11 36 19 WSW 1030,8 31 0 0,0
20.03.2019 14:00:00 11,0 2,9 12,3 9,1 4,8 5,8 24 13 39 21 WSW 1031,0 33 7 0,0
20.03.2019 13:00:00 10,6 3,7 12,4 9,0 4,3 5,8 23 12 34 18 SW 1031,3 25 40 0,0
20.03.2019 12:00:00 9,6 2,2 12,0 7,7 3,9 5,8 25 14 37 20 SW 1031,8 35 41 0,0
20.03.2019 11:00:00 8,4 2,0 10,4 6,0 3,7 5,8 21 11 27 15 SW 1031,8 56 59 0,0
20.03.2019 10:00:00 5,9 1,3 7,0 3,5 3,6 5,8 20 11 28 15 SW 1032,2 39 60 0,0
20.03.2019 09:00:00 3,5 0,5 4,7 1,2 3,7 5,8 12 6 17 9 SSW 1032,0 39 60 0,0
20.03.2019 08:00:00 0,7 -1,1 0,7 1,1 3,8 5,8 11 6 16 8 SSW 1031,9 31 60 0,0

tt = temperature
td = dewpoint
tt 5cm = temperature 5cm
tt -5cm = temperature -5cm
tt -20cm = temperature -20cm
tt -100cm = temperature -100cm
ff = wind speed
fx = gusts
dd = wind direction
ppp = reduced air pressure
vv = visibility
sd = sunshine duration
rr = precipitation

Next stations